Home   Weather   Yokosuka   Past weeks

Flag for Japan Past Weather in Yokosuka, Japan — Yesterday and Last 2 Weeks

Now
75 °F

Broken clouds.


Feels Like: 74 °F
Forecast: 69 / 72 °F
Wind: 20 mph from Northeast

Location: Tokyo International Airport

Current Time: Sep 29, 2016 at 5:30:18 PM

Latest Report: Sep 29, 2016 at 5:00 PM


Visibility: N/A

Pressure: 29.83 "Hg

Humidity: 94%

Dew Point: 73 °F

Location of YokosukaLocation

Past Weather in Yokosuka — Graph

°F

Yokosuka Temperature Yesterday

Maximum temperature yesterday: 88 °F (at 11:00 AM)
Minimum temperature yesterday: 79 °F (at 12:30 AM)
Average temperature yesterday: 82 °F

High & Low Weather Summary for the Past Weeks

 TemperatureHumidityPressure
High88 °F (Sep 28, 11:00 AM)100% (Sep 15, 3:30 AM)30.15 "Hg (Sep 15, 3:30 AM)
Low66 °F (Sep 20, 7:30 PM)66% (Sep 17, 2:00 PM)29.68 "Hg (Sep 18, 3:00 PM)
Average74 °F92%29.95 "Hg
* Reported Sep 14 4:00 PM — Sep 29 4:30 PM, Yokosuka, Weather by CustomWeather, © 2016

Note: Actual official high and low records may vary slightly from our data, if they occured in-between our weather recording intervals... More about our weather records

Advertising

Yokosuka Weather History for the Previous 24 Hours

Scroll right to see more
 ConditionsComfort  
Time TempWeatherWind HumidityBarometerVisibility
4:30 PM
Thu, Sep 29
77 °FPartly sunny.16 mph89%29.80 "HgN/A
4:00 PM79 °FBroken clouds.14 mph89%29.80 "HgN/A
3:30 PM79 °FPartly sunny.13 mph89%29.77 "HgN/A
3:00 PM81 °FBroken clouds.13 mph84%29.77 "Hg6 mi
2:30 PM81 °FBroken clouds.9 mph84%29.77 "HgN/A
2:00 PM81 °FSprinkles. Partly sunny.14 mph84%29.77 "HgN/A
1:30 PM81 °FBroken clouds.13 mph84%29.77 "HgN/A
1:00 PM81 °FBroken clouds.12 mph84%29.74 "HgN/A
12:30 PM81 °FBroken clouds.8 mph84%29.74 "HgN/A
12:00 PM81 °FPartly sunny.10 mph84%29.77 "Hg6 mi
11:30 AM81 °FBroken clouds.9 mph84%29.77 "Hg6 mi
11:00 AM81 °FBroken clouds.9 mph84%29.77 "HgN/A
10:30 AM82 °FPartly sunny.6 mph79%29.77 "HgN/A
10:00 AM82 °FSprinkles. Partly sunny.3 mph84%29.77 "HgN/A
9:30 AM81 °FSprinkles. Broken clouds.6 mph84%29.80 "HgN/A
9:00 AM79 °FSprinkles. Partly sunny.5 mph89%29.80 "HgN/A
8:30 AM77 °FSprinkles. Broken clouds.6 mph100%29.80 "HgN/A
8:00 AM77 °FSprinkles. Broken clouds.3 mph94%29.80 "HgN/A
7:30 AM77 °FSprinkles. Broken clouds.5 mph94%29.80 "HgN/A
7:00 AM77 °FSprinkles. Broken clouds.6 mph94%29.77 "HgN/A
6:30 AM77 °FBroken clouds.2 mph94%29.80 "HgN/A
6:00 AM77 °FBroken clouds.3 mph94%29.80 "Hg6 mi
5:30 AM75 °FPartly cloudy.6 mph100%29.80 "Hg4 mi
5:00 AM75 °FPartly cloudy.5 mph100%29.80 "Hg6 mi
4:30 AM75 °FPartly cloudy.5 mph100%29.80 "Hg6 mi
4:00 AM75 °FPassing clouds.3 mph100%29.80 "Hg6 mi
3:30 AM75 °FPartly cloudy.5 mph100%29.80 "Hg6 mi
3:00 AM77 °FPartly cloudy.6 mph89%29.80 "Hg6 mi
2:30 AM79 °FPartly cloudy.7 mph84%29.80 "Hg6 mi
2:00 AM77 °FPartly cloudy.7 mph94%29.80 "Hg6 mi
1:30 AM77 °FSprinkles. Passing clouds.6 mph94%29.80 "Hg6 mi
1:00 AM77 °FSprinkles. Passing clouds.3 mph94%29.83 "Hg6 mi
12:30 AM79 °FPassing clouds.3 mph84%29.83 "HgN/A
12:00 AM81 °FPassing clouds.5 mph79%29.83 "HgN/A
11:30 PM
Wed, Sep 28
79 °FPassing clouds.3 mph84%29.83 "HgN/A
11:00 PM79 °FPassing clouds.3 mph84%29.83 "HgN/A
10:30 PM79 °FPassing clouds.5 mph84%29.86 "HgN/A
10:00 PM79 °FPassing clouds.5 mph84%29.86 "Hg6 mi
9:30 PM79 °FPassing clouds.8 mph89%29.86 "Hg4 mi
9:00 PM79 °FSprinkles. Passing clouds.10 mph89%29.86 "Hg4 mi
8:30 PM79 °FSprinkles. Partly cloudy.7 mph94%29.86 "HgN/A
8:00 PM82 °FPartly cloudy.6 mph84%29.86 "HgN/A
7:30 PM82 °FPartly cloudy.8 mph84%29.83 "HgN/A
7:00 PM82 °FPartly cloudy.10 mph84%29.83 "HgN/A
6:30 PM82 °FSprinkles. Partly cloudy.10 mph84%29.83 "HgN/A
6:00 PM82 °FScattered showers. Partly cloudy.12 mph84%29.83 "HgN/A
5:30 PM84 °FScattered showers. Partly cloudy.13 mph79%29.83 "HgN/A
5:00 PM84 °FScattered showers. Broken clouds.14 mph74%29.83 "HgN/A
Weather by CustomWeather, © 2016

See weather overviewHow to use our weather pages